67P/Churyumov-Gerasimenko (2021)

Japanese version
Home page
Updated on May 4, 2021

---------------------------------------------------------------------

* Profile

* Orbital Elements

Epoch 2021 Nov. 2.0 TT = JDT 2459520.5
T 2021 Nov. 2.05679 TT                                  MPC
q   1.2106200            (2000.0)            P               Q
n   0.15340808     Peri.   22.13412     +0.52350810     -0.85108116
a   3.4559747      Node    36.33226     +0.77124622     +0.45340213
e   0.6497023      Incl.    3.87139     +0.36210293     +0.26474019
P   6.42
From 3188 observations 1969 Sept. 11-2014 July 2, mean residual 0".7.
     Nongravitational parameters A1 = +0.12, A2 = +0.0099.

* Finding Charts

* Magnitudes Graph

        m1 = 9.5 + 5 log d + 14.0 log r(t - 40)

---------------------------------------------------------------------

The orbital elements are published on M.P.E.C. 2014-N57.
The charts are made with StellaNavigator Ver.10 (AstroArts).
The magnitudes graphs are made with Comet for Windows.

---------------------------------------------------------------------

Copyright(C) Seiichi Yoshida (comet@aerith.net). All rights reserved.